Ridgedale, MO

6:55 AM CST on February 27, 2017 (GMT -0600)
Branson

Weather History for KBBG - July, 2013

Change the Weather History Date:

Monday, July 15, 2013

  Actual Average (KHRO) Record (KHRO)
Temperature  
Mean Temperature 78 °F -  
Max Temperature 89 °F 89 °F 110 °F (1936)
Min Temperature 68 °F 68 °F 49 °F (1967)
Cooling Degree Days 14    
Growing Degree Days 28 (Base 50)    
Moisture  
Dew Point 65 °F    
Average Humidity 78    
Maximum Humidity 94    
Minimum Humidity 40    
Precipitation  
Precipitation 0.00 in - - ()
Sea Level Pressure  
Sea Level Pressure 30.17 in    
Wind  
Wind Speed 7 mph (ESE)    
Max Wind Speed 14 mph    
Max Gust Speed 16 mph    
Visibility 10 miles    
Events      
Averages and records for this station are not official NWS values.
T = Trace of Precipitation, MM = Missing Value Source: NWS Daily Summary

Daily Weather History Graph

Daily Weather History Graph

Search for Another Location

Airport or City:

Trip Planner

Search our weather history database for the weather conditions in past years. The results will help you decide how hot, cold, wet, or windy it might be!

Date:

Astronomy

Jul. 15, 2013 Rise Set
Actual Time 6:06 AM CDT 8:30 PM CDT
Civil Twilight 5:36 AM CDT 9:00 PM CDT
Nautical Twilight 5:00 AM CDT 9:37 PM CDT
Astronomical Twilight 4:19 AM CDT 10:17 PM CDT
Moon 1:12 PM CDT (7/15) No Moon Set
Length of Visible Light 15h 23m
Length of Day
14h 24m
Waxing Crescent, 45% of the Moon is Illuminated
Jul 15
Waxing Crescent
Jul 15
First Quarter
Jul 22
Full
Jul 29
Last Quarter
Aug 6
New

Hourly Weather History & Observations

Time (CDT) Temp. Heat Index Dew Point Humidity Pressure Visibility Wind Dir Wind Speed Gust Speed Precip Events Conditions
12:15 AM 73.4 °F - 59.0 °F 61% 30.13 in 10.0 mi ESE 6.9 mph - N/A   Clear
12:35 AM 73.4 °F - 60.8 °F 65% 30.11 in 10.0 mi ESE 9.2 mph 16.1 mph N/A   Clear
12:55 AM 73.4 °F - 62.6 °F 69% 30.12 in 10.0 mi East 6.9 mph - N/A   Clear
1:15 AM 71.6 °F - 62.6 °F 73% 30.13 in 10.0 mi ESE 8.1 mph - N/A   Clear
1:35 AM 71.6 °F - 62.6 °F 73% 30.13 in 10.0 mi NE 3.5 mph - N/A   Clear
1:55 AM 69.8 °F - 62.6 °F 78% 30.12 in 10.0 mi Calm Calm - N/A   Partly Cloudy
2:15 AM 69.8 °F - 62.6 °F 78% 30.12 in 10.0 mi East 5.8 mph - N/A   Clear
2:35 AM 69.8 °F - 64.4 °F 83% 30.12 in 10.0 mi East 5.8 mph - N/A   Clear
2:55 AM 69.8 °F - 64.4 °F 83% 30.13 in 10.0 mi ESE 6.9 mph - N/A   Clear
3:15 AM 69.8 °F - 64.4 °F 83% 30.12 in 10.0 mi East 4.6 mph - N/A   Clear
3:35 AM 68.0 °F - 64.4 °F 88% 30.13 in 10.0 mi ESE 4.6 mph - N/A   Clear
3:55 AM 68.0 °F - 64.4 °F 88% 30.13 in 10.0 mi ESE 8.1 mph - N/A   Clear
4:15 AM 68.0 °F - 64.4 °F 88% 30.13 in 10.0 mi ESE 5.8 mph - N/A   Clear
4:35 AM 68.0 °F - 64.4 °F 88% 30.13 in 10.0 mi ENE 3.5 mph - N/A   Clear
4:55 AM 68.0 °F - 64.4 °F 88% 30.14 in 10.0 mi NNE 3.5 mph - N/A   Mostly Cloudy
5:15 AM 68.0 °F - 64.4 °F 88% 30.15 in 10.0 mi East 4.6 mph - N/A   Overcast
5:35 AM 68.0 °F - 64.4 °F 88% 30.15 in 10.0 mi ENE 3.5 mph - N/A   Overcast
5:55 AM 68.0 °F - 66.2 °F 94% 30.15 in 10.0 mi East 4.6 mph - N/A   Overcast
6:15 AM 68.0 °F - 66.2 °F 94% 30.16 in 10.0 mi East 5.8 mph - N/A   Overcast
6:35 AM 68.0 °F - 66.2 °F 94% 30.17 in 10.0 mi ESE 6.9 mph - N/A   Overcast
6:50 AM 69.8 °F - 66.2 °F 88% 30.17 in 10.0 mi East 8.1 mph - N/A   Overcast
7:47 AM 69.8 °F - 66.2 °F 88% 30.19 in 10.0 mi ESE 9.2 mph - N/A   Overcast
8:48 AM 69.8 °F - 68.0 °F 94% 30.21 in 10.0 mi SE 13.8 mph - N/A   Mostly Cloudy
9:00 AM 75.2 °F - 66.2 °F 73% 30.21 in 10.0 mi SE 11.5 mph - N/A   Mostly Cloudy
9:45 AM 75.2 °F - 66.2 °F 73% 30.21 in 10.0 mi ESE 9.2 mph - N/A   Mostly Cloudy
10:50 AM 80.6 °F 82.7 °F 66.2 °F 61% 30.21 in 10.0 mi SE 11.5 mph - N/A   Mostly Cloudy
11:50 AM 82.4 °F 83.9 °F 64.4 °F 54% 30.20 in 10.0 mi SE 9.2 mph - N/A   Mostly Cloudy
12:45 PM 86.0 °F 87.3 °F 64.4 °F 48% 30.19 in 10.0 mi ESE 10.4 mph - N/A   Mostly Cloudy
1:47 PM 86.0 °F 87.3 °F 64.4 °F 48% 30.17 in 10.0 mi East 8.1 mph - N/A   Mostly Cloudy
2:48 PM 87.8 °F 88.5 °F 62.6 °F 43% 30.16 in 10.0 mi ESE 8.1 mph - N/A   Mostly Cloudy
3:46 PM 89.6 °F 91.1 °F 64.4 °F 43% 30.15 in 10.0 mi ESE 10.4 mph - N/A   Mostly Cloudy
4:50 PM 89.6 °F 90.1 °F 62.6 °F 40% 30.13 in 10.0 mi ESE 9.2 mph - N/A   Mostly Cloudy
5:50 PM 82.4 °F 83.9 °F 64.4 °F 54% 30.13 in 10.0 mi East 10.4 mph - N/A   Overcast
7:55 PM 71.6 °F - 68.0 °F 88% 30.17 in 10.0 mi East 5.8 mph - N/A   Mostly Cloudy
8:45 PM 71.6 °F - 68.0 °F 88% 30.18 in 10.0 mi ESE 4.6 mph - N/A   Mostly Cloudy
8:55 PM 71.6 °F - 68.0 °F 88% 30.19 in 10.0 mi ESE 3.5 mph - N/A   Mostly Cloudy
9:15 PM 71.6 °F - 68.0 °F 88% 30.20 in 10.0 mi Calm Calm - N/A   Scattered Clouds
9:35 PM 71.6 °F - 68.0 °F 88% 30.21 in 10.0 mi Calm Calm - N/A   Clear
10:15 PM 69.8 °F - 68.0 °F 94% 30.22 in 9.0 mi ESE 3.5 mph - N/A   Clear
10:35 PM 69.8 °F - 68.0 °F 94% 30.22 in 10.0 mi ESE 4.6 mph - N/A   Clear
10:55 PM 71.6 °F - 68.0 °F 88% 30.22 in 10.0 mi ESE 5.8 mph - N/A   Clear
11:15 PM 71.6 °F - 68.0 °F 88% 30.22 in 10.0 mi ESE 5.8 mph - N/A   Clear
11:35 PM 71.6 °F - 68.0 °F 88% 30.22 in 10.0 mi ESE 8.1 mph - N/A   Clear
11:55 PM 71.6 °F - 68.0 °F 88% 30.23 in 10.0 mi ESE 5.8 mph - N/A   Clear